Weather in Vorontsovskaya

Russia / Krasnodar Krai     45°13′12″N   38°44′13″E
temp.,
°C
wind,
m/s
gust,
m/s
humid.,
%
clouds,
%
prec.,
mm/h
press.,
hPa
HPBL,
m
15 april, thu
thu1500:00+8sse237949 0.0 101737
03:00+7sse35855 0.0 101774
06:00+7sse33783 0.0 101740
09:00+13sse346012 0.0 1017329
12:00+18sw354925 0.0 10171353
15:00+16w455896 0.0 1017619
18:00+15nne116890 0.1 101774
21:00+11wnw118441 0.1 101812
16 april, fri
fri1600:00+9wnw3390100 0.0 101737
03:00+8wnw2381100 0.0 101847
06:00+7wnw228795 0.0 101830
09:00+10w2274100 0.0 1020358
12:00+10se2288100 3.1 1020251
15:00+13sw127062 3.2 1020914
18:00+13w127394 0.1 1019296
21:00+10w118580 0.1 102119
17 april, sat
sat1700:00+9wnw2482100 0.0 1021158
03:00+6w34875 0.0 102157
06:00+5wsw359421 0.0 102298
09:00+11w337085 0.0 1023572
12:00+14w3352100 0.0 10231341
15:00+15w3344100 0.0 10221384
18:00+13nnw235870 0.0 1022101
21:00+8nne367697 0.0 1022108
18 april, sun
sun1800:00+6ne3475100 0.0 102283
03:00+6ne3673100 0.0 1021117
06:00+7e3778100 0.1 1020195
09:00+7ene3793100 1.5 1019249
12:00+8ne4694100 1.6 1019285
15:00+8ne3697100 9.3 1020228
18:00+8e3697100 1.7 1020241
21:00+8ese3797100 1.7 1021224
19 april, mon
mon1900:00+8e379586 0.0 1020178
03:00+7ene369467 0.0 1021124
06:00+7ene4990100 0.0 1021229
09:00+12e6107361 0.0 1020516
12:00+15e7857100 0.0 1020906
15:00+17e7958100 0.0 10181056
18:00+15e71266100 0.0 1018692
21:00+13e91766100 0.0 1017596